Welcome to Northern Hawkes Bay. New Zealand.
PWS Header
      nz Flag



Hit Counter


W3C Valid W3C Valid logo


    Wairoa

Select any of the Stations below to visit their websites.










Historic Data from Weather Underground
Select the location of interest below. Wairoa is the default. Please have patience, this Data is slow to load in.
Northern Hawkes Bay Historical Data
Daily Summary for June 2, 2017 Units:  Metric    English   Both
« Previous Day
Next Day »
Daily Weekly Monthly Yearly Custom
  High: Low: Average:
Temperature: 17.0 °C 9.1 °C 12.3 °C
Dew Point: 12.2 °C 7.8 °C 10.2 °C
Humidity: 99% 60% 88%
Wind Speed: 18.3km/h 0.0km/h 4.8km/h
Wind Gust: 29.4km/h - -
Wind- - SSE
Pressure: 1015.5 hPa 1009.4 hPa -
Precipitation: 2.3 mm    
Historical Graphs
 
 
Tabular Data for June 2, 2017
Time Temperature Dew Point Pressure Wind Wind Speed Wind Gust Humidity Rainfall Rate (Hourly) solar
00:03 12.7 °C 9.7 °C 1015.1 hPa SW 3.5 km/h 6.1 km/h 82% 0.0 mm 14 W/m2
00:08 12.6 °C 9.6 °C 1015.1 hPa SW 2.6 km/h 7.2 km/h 82% 0.0 mm 17 W/m2
00:13 12.5 °C 9.7 °C 1014.8 hPa SW 2.6 km/h 7.2 km/h 83% 0.0 mm 12 W/m2
00:18 12.4 °C 9.6 °C 1014.8 hPa WSW 1.1 km/h 7.2 km/h 83% 0.0 mm 5 W/m2
00:23 12.4 °C 9.8 °C 1014.8 hPa WSW 3.5 km/h 5.0 km/h 84% 0.0 mm 4 W/m2
00:28 12.3 °C 9.8 °C 1014.8 hPa SSW 2.6 km/h 9.7 km/h 85% 0.0 mm 4 W/m2
00:33 12.2 °C 9.9 °C 1014.8 hPa SSW 2.6 km/h 9.7 km/h 86% 0.0 mm 4 W/m2
00:38 12.1 °C 10.0 °C 1014.8 hPa Calm   6.1 km/h 87% 0.0 mm 1 W/m2
00:43 12.0 °C 9.9 °C 1014.8 hPa Calm   5.0 km/h 87% 0.0 mm 1 W/m2
00:48 12.0 °C 9.9 °C 1014.8 hPa Calm   2.6 km/h 87% 0.0 mm 0 W/m2
00:53 12.0 °C 10.1 °C 1014.8 hPa North 1.1 km/h 2.6 km/h 88% 0.0 mm 0 W/m2
00:58 12.0 °C 10.1 °C 1014.8 hPa Calm   2.6 km/h 88% 0.0 mm 0 W/m2
01:03 12.0 °C 10.2 °C 1014.8 hPa WNW 1.1 km/h 2.6 km/h 89% 0.0 mm 0 W/m2
01:08 12.0 °C 10.2 °C 1014.8 hPa Calm   3.5 km/h 89% 0.0 mm 0 W/m2
01:13 12.0 °C 10.2 °C 1015.1 hPa NNE 2.6 km/h 3.5 km/h 89% 0.0 mm 0 W/m2
01:18 11.9 °C 10.5 °C 1015.1 hPa ENE 3.5 km/h 6.1 km/h 91% 0.0 mm 0 W/m2
01:23 11.8 °C 10.6 °C 1015.1 hPa ENE 2.6 km/h 6.1 km/h 92% 0.0 mm 0 W/m2
01:28 11.6 °C 10.3 °C 1014.8 hPa NE 1.1 km/h 5.0 km/h 92% 0.0 mm 0 W/m2
01:33 11.5 °C 10.4 °C 1015.1 hPa North 3.5 km/h 6.1 km/h 93% 0.0 mm 0 W/m2
01:38 11.4 °C 10.3 °C 1015.1 hPa North 6.1 km/h 8.7 km/h 93% 0.0 mm 0 W/m2
01:43 11.4 °C 10.4 °C 1015.1 hPa NNW 2.6 km/h 8.7 km/h 94% 0.0 mm 0 W/m2
01:48 11.4 °C 10.4 °C 1015.1 hPa NNW 2.6 km/h 8.7 km/h 94% 0.0 mm 0 W/m2
01:53 11.4 °C 10.4 °C 1015.1 hPa NNW 1.1 km/h 3.5 km/h 94% 0.3 mm 0 W/m2
01:58 11.3 °C 10.6 °C 1015.1 hPa North 1.1 km/h 3.5 km/h 95% 0.3 mm 0 W/m2
02:03 11.3 °C 10.6 °C 1015.5 hPa North 1.1 km/h 2.6 km/h 95% 0.3 mm 0 W/m2
02:08 11.3 °C 10.6 °C 1015.5 hPa Calm   2.6 km/h 95% 0.3 mm 0 W/m2
02:13 11.3 °C 10.6 °C 1015.5 hPa NNE 1.1 km/h 2.6 km/h 95% 0.3 mm 0 W/m2
02:18 11.3 °C 10.6 °C 1015.5 hPa Calm   2.6 km/h 95% 1.0 mm 0 W/m2
02:23 11.3 °C 10.6 °C 1015.5 hPa North 1.1 km/h 2.6 km/h 95% 1.3 mm 0 W/m2
02:28 11.3 °C 10.6 °C 1015.5 hPa North 1.1 km/h 3.5 km/h 95% 1.5 mm 0 W/m2
02:33 11.3 °C 10.7 °C 1015.5 hPa Calm   3.5 km/h 96% 1.5 mm 0 W/m2
02:38 11.2 °C 10.6 °C 1015.5 hPa Calm   2.6 km/h 96% 1.5 mm 0 W/m2
02:43 11.2 °C 10.6 °C 1015.5 hPa Calm   1.1 km/h 96% 1.5 mm 0 W/m2
02:48 11.2 °C 10.6 °C 1015.1 hPa NW 1.1 km/h 3.5 km/h 96% 1.5 mm 0 W/m2
02:53 11.2 °C 10.6 °C 1015.1 hPa NW 1.1 km/h 3.5 km/h 96% 1.3 mm 0 W/m2
02:58 11.1 °C 10.5 °C 1015.5 hPa Calm   2.6 km/h 96% 1.3 mm 0 W/m2
03:03 11.1 °C 10.5 °C 1015.1 hPa WNW 1.1 km/h 2.6 km/h 96% 1.3 mm 0 W/m2
03:08 11.1 °C 10.5 °C 1015.5 hPa WNW 2.6 km/h 3.5 km/h 96% 1.3 mm 0 W/m2
03:13 11.1 °C 10.5 °C 1015.5 hPa NW 1.1 km/h 3.5 km/h 96% 1.0 mm 0 W/m2
03:19 11.0 °C 10.4 °C 1015.5 hPa Calm   3.5 km/h 96% 0.3 mm 0 W/m2
03:24 11.0 °C 10.4 °C 1015.5 hPa Calm   3.5 km/h 96% 0.3 mm 0 W/m2
03:29 11.0 °C 10.4 °C 1015.1 hPa Calm   2.6 km/h 96% 0.0 mm 0 W/m2
03:39 11.0 °C 10.6 °C 1015.1 hPa Calm   1.1 km/h 97% 0.0 mm 0 W/m2
03:44 11.0 °C 10.6 °C 1015.1 hPa NW 1.1 km/h 2.6 km/h 97% 0.0 mm 0 W/m2
03:50 11.0 °C 10.6 °C 1015.1 hPa Calm   2.6 km/h 97% 0.0 mm 0 W/m2
03:55 11.0 °C 10.6 °C 1015.1 hPa NNW 1.1 km/h 2.6 km/h 97% 0.0 mm 0 W/m2
04:00 11.0 °C 10.6 °C 1015.1 hPa NW 1.1 km/h 3.5 km/h 97% 0.0 mm 0 W/m2
04:05 11.0 °C 10.6 °C 1015.1 hPa NW 1.1 km/h 3.5 km/h 97% 0.0 mm 0 W/m2
04:10 11.0 °C 10.6 °C 1015.1 hPa Calm   2.6 km/h 97% 0.0 mm 0 W/m2
04:15 11.0 °C 10.6 °C 1015.1 hPa NE 1.1 km/h 2.6 km/h 97% 0.0 mm 0 W/m2
04:20 11.0 °C 10.6 °C 1015.1 hPa Calm   3.5 km/h 97% 0.0 mm 0 W/m2
04:25 11.0 °C 10.6 °C 1015.1 hPa Calm   3.5 km/h 97% 0.0 mm 0 W/m2
04:30 11.0 °C 10.7 °C 1015.1 hPa Calm   2.6 km/h 98% 0.0 mm 0 W/m2
04:35 11.0 °C 10.7 °C 1015.1 hPa Calm   2.6 km/h 98% 0.0 mm 0 W/m2
04:40 11.0 °C 10.7 °C 1015.1 hPa Calm   2.6 km/h 98% 0.3 mm 0 W/m2
04:45 11.0 °C 10.7 °C 1015.1 hPa NW 2.6 km/h 3.5 km/h 98% 0.3 mm 0 W/m2
04:50 11.1 °C 10.8 °C 1015.1 hPa North 2.6 km/h 5.0 km/h 98% 0.5 mm 0 W/m2
04:55 11.1 °C 10.8 °C 1014.8 hPa NNE 2.6 km/h 6.1 km/h 98% 0.5 mm 0 W/m2
05:00 11.1 °C 10.8 °C 1015.1 hPa NNE 3.5 km/h 6.1 km/h 98% 0.5 mm 0 W/m2
05:05 11.0 °C 10.7 °C 1015.1 hPa North 1.1 km/h 6.1 km/h 98% 0.5 mm 0 W/m2
05:10 11.0 °C 10.7 °C 1014.8 hPa Calm   5.0 km/h 98% 0.5 mm 0 W/m2
05:15 11.0 °C 10.7 °C 1015.1 hPa Calm   2.6 km/h 98% 0.5 mm 0 W/m2
05:20 11.0 °C 10.7 °C 1014.8 hPa NNE 1.1 km/h 5.0 km/h 98% 0.5 mm 0 W/m2
05:25 10.9 °C 10.8 °C 1014.8 hPa Calm   5.0 km/h 99% 0.5 mm 0 W/m2
05:30 10.9 °C 10.8 °C 1014.8 hPa Calm   3.5 km/h 99% 0.5 mm 0 W/m2
05:35 10.9 °C 10.8 °C 1015.1 hPa NNW 1.1 km/h 3.5 km/h 99% 0.5 mm 0 W/m2
05:40 10.9 °C 10.8 °C 1014.8 hPa NNW 1.1 km/h 3.5 km/h 99% 0.3 mm 0 W/m2
05:45 10.9 °C 10.8 °C 1014.8 hPa NW 1.1 km/h 3.5 km/h 99% 0.3 mm 0 W/m2
05:50 10.8 °C 10.7 °C 1014.8 hPa Calm   3.5 km/h 99% 0.0 mm 0 W/m2
05:55 10.8 °C 10.7 °C 1014.8 hPa NNW 1.1 km/h 3.5 km/h 99% 0.0 mm 0 W/m2
06:00 10.8 °C 10.7 °C 1014.8 hPa NNW 1.1 km/h 3.5 km/h 99% 0.0 mm 0 W/m2
06:06 10.7 °C 10.6 °C 1014.4 hPa NE 1.1 km/h 2.6 km/h 99% 0.0 mm 0 W/m2
06:11 10.7 °C 10.6 °C 1014.4 hPa Calm   3.5 km/h 99% 0.0 mm 0 W/m2
06:16 10.6 °C 10.4 °C 1014.4 hPa North 2.6 km/h 3.5 km/h 99% 0.0 mm 0 W/m2
06:21 10.6 °C 10.4 °C 1014.4 hPa Calm   3.5 km/h 99% 0.0 mm 0 W/m2
06:26 10.5 °C 10.3 °C 1014.4 hPa Calm   3.5 km/h 99% 0.0 mm 0 W/m2
06:31 10.6 °C 10.4 °C 1014.4 hPa NNE 1.1 km/h 3.5 km/h 99% 0.0 mm 0 W/m2
06:36 10.5 °C 10.3 °C 1014.4 hPa Calm   3.5 km/h 99% 0.0 mm 0 W/m2
06:41 10.5 °C 10.3 °C 1014.4 hPa North 1.1 km/h 3.5 km/h 99% 0.0 mm 0 W/m2
06:46 10.4 °C 10.3 °C 1014.1 hPa Calm   2.6 km/h 99% 0.0 mm 0 W/m2
06:51 10.4 °C 10.3 °C 1014.1 hPa Calm   2.6 km/h 99% 0.0 mm 0 W/m2
06:57 10.3 °C 10.2 °C 1014.4 hPa Calm   1.1 km/h 99% 0.0 mm 0 W/m2
07:02 10.3 °C 10.2 °C 1014.1 hPa Calm   2.6 km/h 99% 0.0 mm 0 W/m2
07:07 10.3 °C 10.2 °C 1014.1 hPa NE 1.1 km/h 2.6 km/h 99% 0.0 mm 0 W/m2
07:12 10.3 °C 10.2 °C 1014.1 hPa Calm   2.6 km/h 99% 0.0 mm 0 W/m2
07:17 10.3 °C 10.2 °C 1014.1 hPa NNE 1.1 km/h 2.6 km/h 99% 0.0 mm 0 W/m2
07:22 10.3 °C 10.2 °C 1013.8 hPa NNE 1.1 km/h 2.6 km/h 99% 0.0 mm 0 W/m2
07:27 10.3 °C 10.2 °C 1013.8 hPa Calm   2.6 km/h 99% 0.0 mm 0 W/m2
07:32 10.3 °C 10.2 °C 1013.8 hPa NNE 1.1 km/h 3.5 km/h 99% 0.0 mm 0 W/m2
07:37 10.2 °C 10.1 °C 1013.8 hPa Calm   3.5 km/h 99% 0.0 mm 0 W/m2
07:42 10.2 °C 10.1 °C 1013.4 hPa North 1.1 km/h 2.6 km/h 99% 0.0 mm 0 W/m2
07:47 10.1 °C 9.9 °C 1013.8 hPa Calm   2.6 km/h 99% 0.0 mm 0 W/m2
07:52 10.0 °C 9.8 °C 1013.4 hPa NNE 1.1 km/h 2.6 km/h 99% 0.0 mm 0 W/m2
07:57 9.9 °C 9.8 °C 1013.4 hPa Calm   2.6 km/h 99% 0.0 mm 0 W/m2
08:02 9.9 °C 9.8 °C 1013.4 hPa Calm   2.6 km/h 99% 0.0 mm 0 W/m2
08:07 9.7 °C 9.6 °C 1013.4 hPa Calm   2.6 km/h 99% 0.0 mm 0 W/m2
08:12 9.5 °C 9.3 °C 1013.4 hPa Calm   1.1 km/h 99% 0.0 mm 0 W/m2
08:17 9.5 °C 9.3 °C 1013.1 hPa WNW 1.1 km/h 2.6 km/h 99% 0.0 mm 0 W/m2
08:22 9.3 °C 9.2 °C 1013.4 hPa Calm   2.6 km/h 99% 0.0 mm 0 W/m2
08:27 9.2 °C 9.1 °C 1013.4 hPa Calm   3.5 km/h 99% 0.0 mm 0 W/m2
08:32 9.2 °C 9.1 °C 1013.1 hPa NNE 2.6 km/h 3.5 km/h 99% 0.0 mm 0 W/m2
08:37 9.1 °C 8.9 °C 1013.1 hPa North 3.5 km/h 6.1 km/h 99% 0.0 mm 0 W/m2
08:42 9.2 °C 9.1 °C 1013.1 hPa Calm   6.1 km/h 99% 0.0 mm 0 W/m2
08:47 9.4 °C 9.3 °C 1013.1 hPa NNW 1.1 km/h 6.1 km/h 99% 0.0 mm 0 W/m2
08:52 9.8 °C 9.7 °C 1012.8 hPa East 2.6 km/h 6.1 km/h 99% 0.0 mm 0 W/m2
08:57 10.6 °C 10.4 °C 1012.8 hPa SE 5.0 km/h 12.2 km/h 99% 0.0 mm 0 W/m2
09:02 11.0 °C 10.7 °C 1012.8 hPa SE 2.6 km/h 15.8 km/h 98% 0.0 mm 0 W/m2
09:07 11.0 °C 10.7 °C 1012.8 hPa SE 5.0 km/h 15.8 km/h 98% 0.0 mm 0 W/m2
09:08 11.1 °C 10.8 °C 1012.8 hPa ESE 3.5 km/h 15.8 km/h 98% 0.0 mm 0 W/m2
09:13 11.2 °C 10.9 °C 1012.8 hPa ESE 3.5 km/h 11.1 km/h 98% 0.0 mm 0 W/m2
09:18 11.4 °C 11.1 °C 1012.8 hPa ESE 6.1 km/h 9.7 km/h 98% 0.0 mm 0 W/m2
09:23 11.6 °C 11.3 °C 1012.8 hPa ESE 8.7 km/h 15.8 km/h 98% 0.0 mm 0 W/m2
09:28 11.8 °C 11.5 °C 1012.8 hPa ESE 12.2 km/h 17.2 km/h 98% 0.0 mm 0 W/m2
09:33 11.8 °C 11.5 °C 1012.8 hPa ESE 9.7 km/h 19.5 km/h 98% 0.0 mm 0 W/m2
09:38 12.1 °C 11.5 °C 1012.8 hPa ESE 3.5 km/h 19.5 km/h 96% 0.0 mm 0 W/m2
09:43 12.1 °C 11.0 °C 1012.8 hPa East 9.7 km/h 15.8 km/h 93% 0.0 mm 0 W/m2
09:48 12.1 °C 10.7 °C 1012.8 hPa East 5.0 km/h 15.8 km/h 91% 0.0 mm 0 W/m2
09:53 12.1 °C 10.5 °C 1012.8 hPa East 5.0 km/h 12.2 km/h 90% 0.0 mm 0 W/m2
09:54 12.1 °C 10.5 °C 1012.8 hPa East 6.1 km/h 12.2 km/h 90% 0.0 mm 0 W/m2
09:59 12.0 °C 10.4 °C 1012.8 hPa East 6.1 km/h 11.1 km/h 90% 0.0 mm 0 W/m2
10:04 12.0 °C 10.6 °C 1012.8 hPa East 9.7 km/h 14.8 km/h 91% 0.0 mm 0 W/m2
10:09 11.9 °C 10.7 °C 1012.8 hPa ESE 8.7 km/h 20.9 km/h 92% 0.3 mm 0 W/m2
10:14 11.8 °C 10.6 °C 1012.8 hPa ESE 8.7 km/h 20.9 km/h 92% 0.3 mm 0 W/m2
10:19 11.7 °C 10.6 °C 1012.8 hPa ESE 6.1 km/h 20.9 km/h 93% 0.3 mm 0 W/m2
10:24 11.7 °C 10.6 °C 1012.8 hPa SE 2.6 km/h 14.8 km/h 93% 0.3 mm 0 W/m2
10:29 11.7 °C 10.6 °C 1012.4 hPa SE 3.5 km/h 13.4 km/h 93% 0.3 mm 0 W/m2
10:34 11.6 °C 10.5 °C 1012.4 hPa SE 5.0 km/h 13.4 km/h 93% 0.3 mm 0 W/m2
10:39 11.6 °C 10.3 °C 1012.4 hPa SE 5.0 km/h 13.4 km/h 92% 0.3 mm 0 W/m2
10:44 11.6 °C 10.3 °C 1012.4 hPa SE 3.5 km/h 12.2 km/h 92% 0.3 mm 0 W/m2
10:49 11.6 °C 10.5 °C 1012.1 hPa ESE 1.1 km/h 7.2 km/h 93% 0.3 mm 0 W/m2
10:54 11.6 °C 10.5 °C 1012.1 hPa East 6.1 km/h 8.7 km/h 93% 0.3 mm 0 W/m2
10:59 11.7 °C 10.6 °C 1012.4 hPa ENE 8.7 km/h 11.1 km/h 93% 0.3 mm 0 W/m2
11:04 11.7 °C 10.6 °C 1012.1 hPa East 3.5 km/h 13.4 km/h 93% 0.3 mm 0 W/m2
11:09 11.7 °C 10.4 °C 1012.4 hPa ENE 3.5 km/h 13.4 km/h 92% 0.0 mm 0 W/m2
11:14 11.6 °C 10.3 °C 1012.1 hPa ENE 2.6 km/h 11.1 km/h 92% 0.0 mm 0 W/m2
11:19 11.5 °C 10.2 °C 1012.1 hPa ENE 7.2 km/h 8.7 km/h 92% 0.0 mm 0 W/m2
11:24 11.5 °C 10.4 °C 1012.1 hPa ENE 2.6 km/h 8.7 km/h 93% 0.0 mm 0 W/m2
11:29 11.4 °C 10.3 °C 1012.1 hPa Calm   8.7 km/h 93% 0.0 mm 0 W/m2
11:34 11.3 °C 10.2 °C 1012.1 hPa NNE 1.1 km/h 3.5 km/h 93% 0.0 mm 0 W/m2
11:39 11.1 °C 10.0 °C 1012.1 hPa NNW 1.1 km/h 2.6 km/h 93% 0.0 mm 0 W/m2
11:44 10.9 °C 10.0 °C 1012.1 hPa WNW 2.6 km/h 3.5 km/h 94% 0.0 mm 0 W/m2
11:49 10.9 °C 10.0 °C 1011.7 hPa WSW 1.1 km/h 5.0 km/h 94% 0.0 mm 0 W/m2
11:54 10.9 °C 10.0 °C 1011.7 hPa WNW 1.1 km/h 5.0 km/h 94% 0.0 mm 0 W/m2
11:59 10.9 °C 10.1 °C 1011.7 hPa North 1.1 km/h 3.5 km/h 95% 0.0 mm 0 W/m2
12:04 10.9 °C 10.1 °C 1011.7 hPa NNE 2.6 km/h 5.0 km/h 95% 0.0 mm 0 W/m2
12:09 11.0 °C 10.1 °C 1011.7 hPa NE 5.0 km/h 7.2 km/h 94% 0.0 mm 0 W/m2
12:14 11.1 °C 10.3 °C 1011.7 hPa ENE 8.7 km/h 14.8 km/h 95% 0.3 mm 0 W/m2
12:19 11.2 °C 10.4 °C 1011.7 hPa East 6.1 km/h 14.8 km/h 95% 0.3 mm 0 W/m2
12:24 11.3 °C 10.7 °C 1011.7 hPa East 2.6 km/h 14.8 km/h 96% 0.3 mm 0 W/m2
12:29 11.3 °C 10.7 °C 1011.4 hPa East 1.1 km/h 8.7 km/h 96% 0.3 mm 0 W/m2
12:34 11.3 °C 10.7 °C 1011.7 hPa Calm   6.1 km/h 96% 0.3 mm 0 W/m2
12:39 11.3 °C 10.7 °C 1011.4 hPa ENE 9.7 km/h 12.2 km/h 96% 0.3 mm 0 W/m2
12:44 11.4 °C 10.3 °C 1011.4 hPa SE 11.1 km/h 18.3 km/h 93% 0.3 mm 0 W/m2
12:49 11.8 °C 10.6 °C 1011.4 hPa SE 7.2 km/h 18.3 km/h 92% 0.3 mm 0 W/m2
12:54 11.8 °C 10.4 °C 1011.7 hPa ESE 9.7 km/h 19.5 km/h 91% 0.3 mm 0 W/m2
12:59 11.7 °C 10.1 °C 1011.4 hPa ESE 8.7 km/h 19.5 km/h 90% 0.3 mm 0 W/m2
13:04 11.7 °C 10.1 °C 1011.4 hPa SSE 6.1 km/h 14.8 km/h 90% 0.3 mm 0 W/m2
13:09 11.8 °C 10.2 °C 1011.4 hPa SSE 7.2 km/h 14.8 km/h 90% 0.3 mm 0 W/m2
13:14 11.7 °C 10.1 °C 1011.4 hPa SE 7.2 km/h 14.8 km/h 90% 0.0 mm 0 W/m2
13:19 11.7 °C 10.1 °C 1011.4 hPa ESE 3.5 km/h 13.4 km/h 90% 0.0 mm 0 W/m2
13:24 11.6 °C 10.0 °C 1011.4 hPa SE 2.6 km/h 13.4 km/h 90% 0.0 mm 0 W/m2
13:29 11.6 °C 10.2 °C 1011.4 hPa SE 1.1 km/h 6.1 km/h 91% 0.0 mm 0 W/m2
13:34 11.6 °C 10.3 °C 1011.4 hPa SE 1.1 km/h 6.1 km/h 92% 0.0 mm 0 W/m2
13:39 11.6 °C 10.3 °C 1011.1 hPa Calm   6.1 km/h 92% 0.0 mm 0 W/m2
13:44 11.5 °C 10.2 °C 1011.4 hPa SSE 2.6 km/h 6.1 km/h 92% 0.0 mm 0 W/m2
13:49 11.5 °C 10.2 °C 1011.1 hPa SSE 7.2 km/h 14.8 km/h 92% 0.0 mm 0 W/m2
13:54 11.6 °C 10.0 °C 1011.1 hPa SSE 3.5 km/h 14.8 km/h 90% 0.0 mm 0 W/m2
13:59 11.6 °C 9.7 °C 1011.1 hPa SSE 2.6 km/h 12.2 km/h 88% 0.0 mm 0 W/m2
14:04 11.8 °C 9.4 °C 1011.1 hPa South 6.1 km/h 11.1 km/h 85% 0.0 mm 0 W/m2
14:09 12.0 °C 9.4 °C 1011.1 hPa South 9.7 km/h 13.4 km/h 84% 0.0 mm 0 W/m2
14:14 12.0 °C 9.7 °C 1011.4 hPa South 7.2 km/h 14.8 km/h 86% 0.0 mm 0 W/m2
14:19 12.0 °C 9.7 °C 1011.1 hPa South 8.7 km/h 14.8 km/h 86% 0.0 mm 0 W/m2
14:24 12.0 °C 9.6 °C 1011.4 hPa SSW 6.1 km/h 17.2 km/h 85% 0.0 mm 0 W/m2
14:29 12.0 °C 9.9 °C 1011.4 hPa SSW 8.7 km/h 17.2 km/h 87% 0.0 mm 0 W/m2
14:34 11.9 °C 10.3 °C 1011.4 hPa South 8.7 km/h 17.2 km/h 90% 0.0 mm 0 W/m2
14:39 11.9 °C 10.3 °C 1011.1 hPa South 7.2 km/h 14.8 km/h 90% 0.0 mm 0 W/m2
14:44 11.9 °C 10.3 °C 1011.1 hPa South 6.1 km/h 13.4 km/h 90% 0.0 mm 0 W/m2
14:49 11.9 °C 10.3 °C 1011.1 hPa South 6.1 km/h 11.1 km/h 90% 0.0 mm 0 W/m2
14:54 11.8 °C 10.1 °C 1011.1 hPa SSW 6.1 km/h 11.1 km/h 89% 0.0 mm 0 W/m2
14:59 11.9 °C 10.2 °C 1011.4 hPa South 8.7 km/h 13.4 km/h 89% 0.0 mm 0 W/m2
15:04 12.3 °C 9.8 °C 1011.1 hPa SSE 7.2 km/h 18.3 km/h 85% 0.0 mm 0 W/m2
15:09 12.4 °C 9.8 °C 1011.1 hPa South 6.1 km/h 18.3 km/h 84% 0.0 mm 0 W/m2
15:14 12.5 °C 9.9 °C 1011.1 hPa South 8.7 km/h 14.8 km/h 84% 0.0 mm 0 W/m2
15:20 12.6 °C 10.2 °C 1011.1 hPa South 8.7 km/h 17.2 km/h 85% 0.0 mm 0 W/m2
15:25 12.6 °C 10.2 °C 1011.4 hPa South 9.7 km/h 17.2 km/h 85% 0.0 mm 1 W/m2
15:30 12.5 °C 10.1 °C 1011.1 hPa South 14.8 km/h 20.9 km/h 85% 0.0 mm 3 W/m2
15:35 12.6 °C 10.2 °C 1011.1 hPa South 13.4 km/h 24.5 km/h 85% 0.0 mm 4 W/m2
15:40 12.6 °C 10.2 °C 1011.1 hPa South 9.7 km/h 24.5 km/h 85% 0.0 mm 4 W/m2
15:45 12.7 °C 10.2 °C 1011.1 hPa South 7.2 km/h 19.5 km/h 85% 0.0 mm 5 W/m2
15:50 12.6 °C 10.3 °C 1011.1 hPa South 7.2 km/h 19.5 km/h 86% 0.0 mm 4 W/m2
15:55 12.4 °C 10.3 °C 1011.1 hPa South 12.2 km/h 15.8 km/h 87% 0.5 mm 8 W/m2
16:00 12.3 °C 10.4 °C 1010.7 hPa SSW 15.8 km/h 28.0 km/h 88% 0.5 mm 11 W/m2
16:05 12.6 °C 10.5 °C 1011.1 hPa SSW 18.3 km/h 28.0 km/h 87% 0.5 mm 13 W/m2
16:10 12.7 °C 10.2 °C 1011.1 hPa South 9.7 km/h 28.0 km/h 85% 0.5 mm 10 W/m2
16:15 12.6 °C 10.2 °C 1011.1 hPa South 8.7 km/h 21.9 km/h 85% 1.0 mm 13 W/m2
16:20 12.6 °C 10.5 °C 1011.4 hPa SSE 8.7 km/h 20.9 km/h 87% 1.0 mm 22 W/m2
16:25 12.4 °C 10.7 °C 1011.4 hPa SE 6.1 km/h 14.8 km/h 89% 1.0 mm 24 W/m2
16:30 12.2 °C 10.6 °C 1011.4 hPa ESE 9.7 km/h 15.8 km/h 90% 1.0 mm 35 W/m2
16:35 12.2 °C 10.8 °C 1011.4 hPa SSE 7.2 km/h 21.9 km/h 91% 1.0 mm 49 W/m2
16:40 12.1 °C 10.7 °C 1011.4 hPa SE 8.7 km/h 21.9 km/h 91% 1.0 mm 52 W/m2
16:45 11.8 °C 10.6 °C 1011.4 hPa SE 7.2 km/h 21.9 km/h 92% 1.0 mm 58 W/m2
16:50 11.6 °C 10.3 °C 1011.4 hPa SSE 7.2 km/h 20.9 km/h 92% 0.5 mm 96 W/m2
16:55 11.7 °C 10.4 °C 1011.4 hPa South 5.0 km/h 14.8 km/h 92% 0.3 mm 90 W/m2
17:01 11.9 °C 10.7 °C 1011.1 hPa South 8.7 km/h 13.4 km/h 92% 0.3 mm 89 W/m2
17:06 11.9 °C 10.7 °C 1011.4 hPa SSE 6.1 km/h 14.8 km/h 92% 0.3 mm 87 W/m2
17:11 11.8 °C 10.6 °C 1011.1 hPa SSE 6.1 km/h 14.8 km/h 92% 0.3 mm 67 W/m2
17:16 11.8 °C 10.6 °C 1011.1 hPa SSE 6.1 km/h 12.2 km/h 92% 0.0 mm 67 W/m2
17:21 11.8 °C 10.7 °C 1011.1 hPa South 6.1 km/h 9.7 km/h 93% 0.0 mm 46 W/m2
17:26 11.9 °C 10.8 °C 1011.4 hPa South 7.2 km/h 13.4 km/h 93% 0.0 mm 72 W/m2
17:31 12.0 °C 10.9 °C 1011.4 hPa South 7.2 km/h 13.4 km/h 93% 0.3 mm 109 W/m2
17:36 12.3 °C 11.2 °C 1011.4 hPa SSE 5.0 km/h 13.4 km/h 93% 0.5 mm 115 W/m2
17:41 12.4 °C 11.3 °C 1011.4 hPa SSE 8.7 km/h 13.4 km/h 93% 0.5 mm 145 W/m2
17:46 12.7 °C 11.6 °C 1011.1 hPa SE 7.2 km/h 14.8 km/h 93% 0.5 mm 134 W/m2
17:51 12.7 °C 11.4 °C 1011.1 hPa SE 3.5 km/h 14.8 km/h 92% 0.5 mm 106 W/m2
17:56 13.0 °C 11.4 °C 1011.1 hPa SSE 5.0 km/h 11.1 km/h 90% 0.5 mm 100 W/m2
18:01 13.6 °C 12.0 °C 1011.1 hPa SSE 2.6 km/h 9.7 km/h 90% 0.5 mm 133 W/m2
18:06 14.2 °C 12.2 °C 1011.4 hPa SSE 5.0 km/h 8.7 km/h 88% 0.5 mm 108 W/m2
18:11 14.4 °C 12.1 °C 1011.1 hPa SE 5.0 km/h 11.1 km/h 86% 0.5 mm 122 W/m2
18:16 14.6 °C 12.1 °C 1011.4 hPa SSE 3.5 km/h 11.1 km/h 85% 0.5 mm 114 W/m2
18:21 14.4 °C 11.7 °C 1011.4 hPa SSE 5.0 km/h 13.4 km/h 84% 0.5 mm 72 W/m2
18:26 13.9 °C 11.4 °C 1011.4 hPa SE 5.0 km/h 13.4 km/h 85% 0.5 mm 186 W/m2
18:31 14.6 °C 12.1 °C 1011.4 hPa SE 9.7 km/h 17.2 km/h 85% 0.5 mm 166 W/m2
18:36 14.4 °C 10.8 °C 1011.4 hPa ESE 8.7 km/h 17.2 km/h 79% 0.3 mm 181 W/m2
18:41 14.5 °C 10.3 °C 1011.7 hPa ESE 7.2 km/h 17.2 km/h 76% 0.3 mm 180 W/m2
18:46 14.7 °C 10.7 °C 1011.7 hPa ESE 8.7 km/h 17.2 km/h 77% 0.3 mm 130 W/m2
18:51 14.4 °C 10.4 °C 1011.4 hPa ESE 7.2 km/h 14.8 km/h 77% 0.3 mm 113 W/m2
18:56 14.1 °C 9.9 °C 1011.7 hPa ESE 8.7 km/h 17.2 km/h 76% 0.3 mm 124 W/m2
19:01 14.0 °C 10.1 °C 1011.4 hPa ESE 3.5 km/h 17.2 km/h 77% 0.3 mm 124 W/m2
19:06 14.4 °C 10.4 °C 1011.4 hPa ESE 5.0 km/h 15.8 km/h 77% 0.3 mm 116 W/m2
19:11 14.9 °C 10.7 °C 1011.4 hPa ESE 6.1 km/h 12.2 km/h 76% 0.3 mm 133 W/m2
19:16 15.2 °C 10.6 °C 1011.4 hPa ESE 6.1 km/h 13.4 km/h 74% 0.3 mm 209 W/m2
19:21 15.4 °C 10.6 °C 1011.4 hPa ESE 6.1 km/h 19.5 km/h 73% 0.3 mm 231 W/m2
19:26 15.5 °C 10.9 °C 1011.4 hPa ESE 7.2 km/h 19.5 km/h 74% 0.3 mm 244 W/m2
19:31 15.1 °C 10.5 °C 1011.1 hPa SE 5.0 km/h 17.2 km/h 74% 0.0 mm 191 W/m2
19:36 14.1 °C 10.5 °C 1011.1 hPa SSE 6.1 km/h 17.2 km/h 79% 0.0 mm 146 W/m2
19:41 14.0 °C 11.3 °C 1011.1 hPa South 6.1 km/h 15.8 km/h 84% 0.0 mm 109 W/m2
19:46 14.7 °C 12.1 °C 1010.7 hPa South 3.5 km/h 9.7 km/h 84% 0.0 mm 104 W/m2
19:51 15.3 °C 12.1 °C 1010.7 hPa South 6.1 km/h 8.7 km/h 81% 0.0 mm 125 W/m2
19:57 15.9 °C 11.5 °C 1010.7 hPa SSE 5.0 km/h 11.1 km/h 75% 0.0 mm 199 W/m2
20:02 16.5 °C 11.7 °C 1010.7 hPa SSE 6.1 km/h 11.1 km/h 73% 0.0 mm 245 W/m2
20:07 16.6 °C 11.7 °C 1010.7 hPa SSE 5.0 km/h 12.2 km/h 73% 0.0 mm 230 W/m2
20:12 17.0 °C 11.7 °C 1010.4 hPa SE 5.0 km/h 12.2 km/h 71% 0.0 mm 209 W/m2
20:17 16.7 °C 10.6 °C 1010.4 hPa SE 7.2 km/h 12.2 km/h 67% 0.0 mm 205 W/m2
20:22 16.3 °C 9.5 °C 1010.4 hPa SE 7.2 km/h 21.9 km/h 64% 0.0 mm 221 W/m2
20:27 16.5 °C 9.4 °C 1010.0 hPa SE 9.7 km/h 21.9 km/h 63% 0.0 mm 218 W/m2
20:32 16.0 °C 8.5 °C 1010.4 hPa ESE 9.7 km/h 27.0 km/h 61% 0.0 mm 197 W/m2
20:37 15.6 °C 8.8 °C 1010.0 hPa ESE 11.1 km/h 27.0 km/h 64% 0.0 mm 176 W/m2
20:42 15.4 °C 8.6 °C 1010.0 hPa ESE 11.1 km/h 18.3 km/h 64% 0.0 mm 185 W/m2
20:46 15.3 °C 9.2 °C 1010.0 hPa ESE 5.0 km/h 18.3 km/h 67% 0.0 mm 196 W/m2
20:51 15.4 °C 8.8 °C 1010.0 hPa ESE 8.7 km/h 20.9 km/h 65% 0.0 mm 184 W/m2
20:56 15.6 °C 8.8 °C 1010.0 hPa ESE 9.7 km/h 21.9 km/h 64% 0.0 mm 157 W/m2
21:01 15.7 °C 8.9 °C 1010.0 hPa SE 11.1 km/h 21.9 km/h 64% 0.0 mm 98 W/m2
21:06 15.5 °C 8.5 °C 1010.0 hPa SE 7.2 km/h 19.5 km/h 63% 0.0 mm 98 W/m2
21:12 15.6 °C 8.6 °C 1010.0 hPa SE 14.8 km/h 24.5 km/h 63% 0.0 mm 165 W/m2
21:17 15.4 °C 8.4 °C 1010.0 hPa SSE 7.2 km/h 24.5 km/h 63% 0.0 mm 136 W/m2
21:22 15.3 °C 8.8 °C 1010.0 hPa SSE 12.2 km/h 23.3 km/h 65% 0.0 mm 125 W/m2
21:27 15.2 °C 8.7 °C 1009.7 hPa SSE 14.8 km/h 21.9 km/h 65% 0.0 mm 101 W/m2
21:32 15.5 °C 8.7 °C 1009.7 hPa SSE 5.0 km/h 20.9 km/h 64% 0.0 mm 134 W/m2
21:37 15.6 °C 9.1 °C 1009.7 hPa SE 7.2 km/h 20.9 km/h 65% 0.0 mm 142 W/m2
21:42 15.3 °C 8.3 °C 1009.7 hPa ESE 8.7 km/h 29.4 km/h 63% 0.0 mm 126 W/m2
21:47 15.4 °C 8.6 °C 1009.4 hPa ESE 8.7 km/h 29.4 km/h 64% 0.0 mm 139 W/m2
21:52 15.9 °C 9.3 °C 1009.7 hPa SE 9.7 km/h 18.3 km/h 65% 0.0 mm 178 W/m2
21:57 15.9 °C 9.1 °C 1009.7 hPa SE 11.1 km/h 23.3 km/h 64% 0.0 mm 159 W/m2
22:02 15.4 °C 8.8 °C 1009.7 hPa SE 7.2 km/h 23.3 km/h 65% 0.0 mm 137 W/m2
22:07 15.0 °C 8.3 °C 1009.7 hPa ESE 12.2 km/h 20.9 km/h 64% 0.0 mm 122 W/m2
22:12 14.8 °C 8.5 °C 1009.7 hPa SE 8.7 km/h 20.9 km/h 66% 0.0 mm 123 W/m2
22:17 14.6 °C 8.1 °C 1009.4 hPa SE 7.2 km/h 20.9 km/h 65% 0.0 mm 110 W/m2
22:22 14.6 °C 8.1 °C 1009.4 hPa SE 12.2 km/h 20.9 km/h 65% 0.0 mm 102 W/m2
22:27 14.6 °C 8.3 °C 1009.7 hPa ESE 5.0 km/h 19.5 km/h 66% 0.0 mm 96 W/m2
22:32 14.6 °C 8.1 °C 1009.4 hPa SSE 12.2 km/h 19.5 km/h 65% 0.0 mm 59 W/m2
22:37 14.4 °C 7.9 °C 1009.4 hPa SSE 7.2 km/h 17.2 km/h 65% 0.0 mm 108 W/m2
22:42 14.6 °C 8.1 °C 1009.4 hPa SE 2.6 km/h 19.5 km/h 65% 0.0 mm 82 W/m2
22:47 15.0 °C 8.0 °C 1009.4 hPa ESE 6.1 km/h 19.5 km/h 63% 0.0 mm 225 W/m2
22:52 15.7 °C 8.7 °C 1009.4 hPa SE 9.7 km/h 19.5 km/h 63% 0.0 mm 160 W/m2
22:57 16.1 °C 8.8 °C 1009.4 hPa SSE 9.7 km/h 20.9 km/h 62% 0.0 mm 285 W/m2
23:02 16.2 °C 8.4 °C 1009.4 hPa SSE 14.8 km/h 20.9 km/h 60% 0.0 mm 114 W/m2
23:07 15.3 °C 8.3 °C 1009.4 hPa SSE 9.7 km/h 21.9 km/h 63% 0.0 mm 114 W/m2
23:12 15.1 °C 8.6 °C 1009.4 hPa South 9.7 km/h 21.9 km/h 65% 0.0 mm 118 W/m2
23:17 14.9 °C 8.6 °C 1009.4 hPa SSE 11.1 km/h 20.9 km/h 66% 0.0 mm 92 W/m2
23:22 14.7 °C 8.4 °C 1009.4 hPa SE 7.2 km/h 20.9 km/h 66% 0.0 mm 85 W/m2
23:27 14.4 °C 8.1 °C 1009.4 hPa SSE 12.2 km/h 20.9 km/h 66% 0.0 mm 74 W/m2
23:32 14.3 °C 8.3 °C 1009.4 hPa SSE 11.1 km/h 20.9 km/h 67% 0.0 mm 67 W/m2
23:37 14.0 °C 7.8 °C 1009.7 hPa SSE 11.1 km/h 19.5 km/h 66% 0.0 mm 62 W/m2
23:42 14.0 °C 8.0 °C 1009.4 hPa SSE 15.8 km/h 21.9 km/h 67% 0.0 mm 60 W/m2
23:47 14.0 °C 8.0 °C 1009.4 hPa South 9.7 km/h 21.9 km/h 67% 0.0 mm 48 W/m2
23:52 13.9 °C 8.1 °C 1009.4 hPa SSE 17.2 km/h 23.3 km/h 68% 0.0 mm 39 W/m2
23:57 13.8 °C 7.8 °C 1009.7 hPa SSE 11.1 km/h 23.3 km/h 67% 0.0 mm 37 W/m2
Northern Hawkes Bay. New Zealand Historic Data
Compliments of Weather Underground - 2 mb